User: anonymous   Login
Location: Kuffner-Sternwarte
(48.2130°N, 16.2960°E)
Time: 14:59:22
(UTC+01:00)
Language:

COROT - Orbit

View from above orbital plane
View from above orbital plane
View from above satellite
View from above satellite

Ground track
Ground track

The orbit data is extracted from the following two-line orbital elements,

1 29678U 06063A   18050.96393292 +.00000253 +00000-0 +54466-4 0  9993
2 29678 090.0351 016.1534 0201814 356.4141 003.5602 14.44145973575827
Epoch (UTC): 19 February 2018 23:08:03
Eccentricity: 0.0201814
inclination: 90.0351°
perigee height: 601 km
apogee height: 888 km
right ascension of ascending node: 16.1534°
argument of perigee: 356.4141°
revolutions per day: 14.44145973
mean anomaly at epoch: 3.5602°
orbit number at epoch: 57582

The dashed part of the orbit path shows where the satellite is in the earth's shadow,  

DLR